[[{"header":{"parameterUnit":"m.s-1","parameterCategory":1,"la1":30.2991,"la2":30.254,"lo1":-89.0895,"lo2":-89.0444,"dy":0.0017,"dx":0.0017,"nx":28,"ny":28,"refTime":"2025-02-24T03:00:00:Z","depth":0,"parameterNumber":2,"parameterNumberName":"U-component_of_WINDS"},"data":[0,0,0,0,0,0,0,0,0,0,0,0,0,0,0,0,0,0,0,0,0,0,0,0,0,0,0,0,0,0,0,0,0,0,0,0,0,0,0,0,0,0,0,0,0,0,0,0,0,0,0,0,0,0,0,0,0,0,2.6093,2.6094,0,2.6184,2.6185,2.6186,2.6129,2.6126,2.6124,2.6121,2.6218,2.6223,2.6228,0,0,0,0,0,0,0,0,0,0,0,0,0,2.5872,2.5877,2.6093,2.6094,2.6095,2.6184,2.6185,2.6186,2.613,2.6126,2.6123,2.612,2.6216,2.6222,2.6228,0,0,0,0,0,0,0,0,0,0,0,0,0,2.5966,2.5878,2.6092,2.6077,2.6077,2.6184,2.6185,2.6187,2.613,2.6126,2.6122,2.6118,2.6214,2.6222,2.6229,2.6357,0,0,2.6253,2.6256,0,0,0,0,0,0,0,0,2.5961,2.5974,2.6078,2.6078,2.6078,2.6141,2.6143,2.6244,2.6131,2.611,2.6121,2.6116,2.6196,2.6205,2.6231,2.6362,2.6366,2.6253,2.6258,2.6261,2.6263,0,0,0,0,0,0,0,2.5955,2.597,2.6129,2.608,2.608,2.6067,2.6076,2.6162,2.6175,2.6112,2.6108,2.6119,2.6195,2.6224,2.6233,2.6367,2.6253,2.626,2.6265,2.6268,2.6609,2.6614,0,0,0,0,0,0,2.5949,2.5965,2.6126,2.6132,2.6008,2.6074,2.6084,2.6125,2.6173,2.6177,2.6122,2.6116,2.6213,2.6224,2.6236,2.6389,2.6261,2.6268,2.6273,2.6605,2.661,2.6615,0,0,0,0,0,0,2.5944,2.5964,2.6122,2.6047,2.6067,2.6082,2.6129,2.6129,2.6157,2.6182,2.6184,2.6149,2.621,2.6225,2.6328,2.6392,2.6272,2.6279,2.66,2.6607,2.6613,2.6698,0,0,0,0,0,0,2.5938,2.5962,2.601,2.6049,2.6071,2.6212,2.6133,2.6134,2.617,2.6163,2.6207,2.6211,2.6208,2.6317,2.6335,2.64,2.6285,2.6594,2.6603,2.6611,2.6689,2.6706,2.6721,0,0,0,0,0,2.5931,2.6031,2.6013,2.6033,2.6131,2.6215,2.6228,2.6222,2.6176,2.6225,2.624,2.6209,2.6382,2.6327,2.6348,2.6417,2.659,2.66,2.661,2.6682,2.6703,2.6721,0,0,0,0,0,0,2.6,2.6036,2.6016,2.6132,2.6171,2.6205,2.6267,2.6244,2.6298,2.6289,2.628,2.629,2.6397,2.6417,2.6356,2.6544,2.6479,2.6494,2.6526,2.6547,2.6562,2.6555,2.6291,0,0,0,0,0,2.6029,2.6094,2.6122,2.6221,2.6242,2.6251,2.6288,2.6279,2.632,2.6336,2.636,2.6401,2.6465,2.6507,2.6567,2.6692,2.6701,2.6749,2.6765,2.6778,2.6791,2.686,2.6882,2.6648,2.6648,2.6648,0,0,2.6089,2.6117,2.6158,2.6236,2.6265,2.6333,2.6265,2.634,2.6391,2.6348,2.6446,2.6465,2.6511,2.6625,2.6677,2.6645,2.6858,2.6791,2.6801,2.6807,2.6872,2.6894,2.6914,2.6655,2.6654,2.6653,0,0,2.6234,2.6261,2.6347,2.6378,2.6423,2.6428,2.6449,2.6488,2.6498,2.6596,2.6566,2.6627,2.6736,2.677,2.6802,2.6961,2.6935,2.6981,2.7065,2.7132,2.715,2.7166,2.7223,2.7244,2.6994,2.6994,2.6994,0,2.6303,2.6403,2.6394,2.6472,2.6507,2.6471,2.6559,2.6589,2.6652,2.6678,2.6642,2.6779,2.6807,2.6929,2.6968,2.6995,2.7019,2.6976,2.7148,2.7164,2.7179,2.7234,2.7255,2.6999,2.6999,2.6998,2.6998,0,2.6487,2.6557,2.6622,2.6682,2.6725,2.6808,2.6812,2.6857,2.6845,2.6856,2.6957,2.6989,2.7056,2.7084,2.7074,2.7206,2.7185,2.7149,2.7083,2.7207,2.7258,2.7279,2.7007,2.7005,2.7003,2.7002,0,0,2.6677,2.6732,2.6756,2.6783,2.6831,2.6886,2.6967,2.7031,2.707,2.7115,2.7184,2.7278,2.7245,2.7281,2.7275,2.7333,2.7458,2.729,2.7291,2.732,2.7606,2.7633,2.7657,2.7441,2.7445,2.7448,2.7602,0,2.6824,2.6965,2.6959,2.7091,2.7157,2.7124,2.7195,2.7233,2.7245,2.7304,2.7317,2.7384,2.7335,2.7357,2.7414,2.7431,2.7515,2.742,2.7506,2.7509,2.7495,2.7683,2.7712,2.7856,2.7622,2.7625,2.7628,0,2.7014,2.7065,2.7204,2.7243,2.727,2.7334,2.7392,2.7448,2.7491,2.7496,2.7537,2.7521,2.7605,2.7538,2.7654,2.7589,2.7624,2.7638,2.7644,2.7651,2.7576,2.7696,2.7901,2.7923,2.7659,2.7657,2.7654,0,2.7139,2.7243,2.7339,2.7364,2.7411,2.7457,2.7479,2.7518,2.7557,2.7609,2.7634,2.7696,2.773,2.7778,2.778,2.7731,2.7898,2.783,2.7905,2.7905,2.7941,2.7939,2.8154,2.7964,2.7964,2.7963,2.7963,0,2.7304,2.739,2.7396,2.7455,2.7551,2.7545,2.764,2.7658,2.7693,2.7756,2.7732,2.7792,2.7791,2.7852,2.7855,2.7951,2.7966,2.7973,2.7973,2.7975,2.7975,2.7998,2.7988,2.7969,2.7968,2.7967,2.7966,0,2.746,2.7467,2.757,2.7606,2.7618,2.7687,2.7719,2.7776,2.7786,2.7867,2.7885,2.7902,2.7973,2.798,2.8063,2.8064,2.818,2.8169,2.8166,2.8164,2.8238,2.8231,2.8476,2.8508,2.8297,2.8299,2.8301,0,2.7564,2.763,2.7674,2.7714,2.7738,2.7804,2.7843,2.784,2.7883,2.7937,2.7988,2.8057,2.8111,2.8227,2.8247,2.8311,2.8301,2.8383,2.831,2.8311,2.8302,2.8298,2.8305,2.8396,2.8399,2.8401,2.8402,0,2.7749,2.775,2.7807,2.7867,2.7915,2.7962,2.8006,2.8041,2.8044,2.8093,2.8165,2.8207,2.8292,2.8361,2.8423,2.8447,2.8426,2.8425,2.8445,2.8448,2.8444,2.8447,2.8204,2.8419,2.8417,2.8416,2.8415,2.8415,2.7883,2.7939,2.7979,2.8045,2.8078,2.812,2.8175,2.8192,2.8252,2.832,2.8315,2.8395,2.8438,2.8519,2.8548,2.8611,2.8584,2.8614,2.8621,2.8629,2.8636,2.8434,2.8623,2.8622,2.8622,2.8622,2.8621,0,2.8066,2.8091,2.8151,2.8213,2.8265,2.824,2.8288,2.8333,2.8403,2.8444,2.8499,2.8582,2.8649,2.8675,2.874,2.8786,2.8778,2.8804,2.88,2.8806,2.8657,2.8632,2.8809,2.8809,2.8809,2.8809,2.8809,2.8809,2.8168,2.8263,2.8269,2.838,2.8404,2.8481,2.8511,2.855,2.8583,2.8677,2.8732,2.8748,2.8783,2.8852,2.8912,2.8918,2.8944,2.8973,2.8975,2.8835,2.8816,2.8798,2.8775,2.8979,2.8979,2.9119,2.912,2.9121]},{"header":{"parameterUnit":"m.s-1","parameterCategory":1,"la1":30.2991,"la2":30.254,"lo1":-89.0895,"lo2":-89.0444,"dy":0.0017,"dx":0.0017,"nx":28,"ny":28,"refTime":"2025-02-24T03:00:00:Z","depth":0,"parameterNumber":3,"parameterNumberName":"V-component_of_WINDS"},"data":[0,0,0,0,0,0,0,0,0,0,0,0,0,0,0,0,0,0,0,0,0,0,0,0,0,0,0,0,0,0,0,0,0,0,0,0,0,0,0,0,0,0,0,0,0,0,0,0,0,0,0,0,0,0,0,0,0,0,1.5497,1.5498,0,1.5568,1.5569,1.557,1.5566,1.5565,1.5564,1.5563,1.5634,1.5637,1.564,0,0,0,0,0,0,0,0,0,0,0,0,0,1.5356,1.5358,1.5497,1.5498,1.5499,1.5568,1.5569,1.557,1.5566,1.5565,1.5564,1.5563,1.5633,1.5637,1.564,0,0,0,0,0,0,0,0,0,0,0,0,0,1.5421,1.5359,1.5497,1.5505,1.5507,1.5568,1.5569,1.557,1.5567,1.5565,1.5564,1.5562,1.5632,1.5636,1.564,1.5697,0,0,1.5653,1.5655,0,0,0,0,0,0,0,0,1.5417,1.5426,1.5503,1.5505,1.5507,1.5557,1.5545,1.5613,1.5567,1.5544,1.5563,1.5561,1.561,1.5616,1.5632,1.5701,1.5704,1.5654,1.5656,1.5658,1.5659,0,0,0,0,0,0,0,1.5413,1.5423,1.5525,1.5504,1.5507,1.5505,1.5512,1.5558,1.5584,1.5546,1.5546,1.5554,1.561,1.5628,1.5634,1.5705,1.5654,1.5657,1.566,1.5662,1.5822,1.5824,0,0,0,0,0,0,1.5407,1.5419,1.5523,1.5527,1.5457,1.5509,1.5517,1.5542,1.5584,1.5589,1.5556,1.5554,1.5622,1.5629,1.5636,1.5705,1.5658,1.5662,1.5665,1.582,1.5822,1.5824,0,0,0,0,0,0,1.5404,1.5416,1.552,1.5473,1.5487,1.5513,1.5541,1.5545,1.5563,1.5591,1.5596,1.5569,1.5621,1.563,1.5682,1.5707,1.5664,1.5668,1.5818,1.5821,1.5823,1.5843,0,0,0,0,0,0,1.54,1.5415,1.5437,1.5474,1.5489,1.5566,1.5543,1.5547,1.557,1.5569,1.5605,1.561,1.562,1.5676,1.5686,1.5713,1.5671,1.5816,1.5819,1.5822,1.584,1.5846,1.5851,0,0,0,0,0,1.5394,1.544,1.5439,1.5451,1.5518,1.5567,1.5576,1.5587,1.5572,1.5595,1.5613,1.5609,1.5703,1.5681,1.5693,1.5721,1.5814,1.5818,1.5822,1.5838,1.5845,1.5851,0,0,0,0,0,0,1.5406,1.5445,1.5444,1.5503,1.5532,1.5566,1.5595,1.5594,1.5628,1.5625,1.5637,1.5645,1.5697,1.5714,1.5689,1.5777,1.5757,1.5763,1.5765,1.5772,1.5777,1.5772,1.5675,0,0,0,0,0,1.5415,1.5452,1.5484,1.5533,1.5548,1.5569,1.5591,1.5597,1.5627,1.5639,1.5661,1.569,1.5726,1.575,1.5785,1.5843,1.585,1.5868,1.5873,1.5877,1.5882,1.5914,1.5921,1.5837,1.5837,1.5837,0,0,1.5435,1.5461,1.5484,1.5536,1.5559,1.5597,1.5579,1.562,1.5648,1.5645,1.5696,1.5713,1.5745,1.58,1.5826,1.5816,1.5907,1.5882,1.5885,1.5888,1.5918,1.5926,1.5933,1.5839,1.5839,1.5838,0,0,1.549,1.5513,1.5556,1.558,1.5615,1.5629,1.5639,1.5674,1.5685,1.5736,1.5735,1.5767,1.5829,1.5852,1.5872,1.5935,1.5932,1.5945,1.5973,1.6004,1.601,1.6016,1.6038,1.6046,1.5951,1.5951,1.5951,0,1.551,1.5567,1.5578,1.562,1.5642,1.5642,1.5685,1.5707,1.5751,1.5767,1.5755,1.5833,1.5855,1.5915,1.593,1.5946,1.5957,1.5942,1.6008,1.6015,1.602,1.6041,1.6049,1.5952,1.5952,1.5952,1.5952,0,1.5589,1.5629,1.5659,1.5703,1.5729,1.577,1.5787,1.5812,1.5816,1.583,1.5881,1.5908,1.5947,1.5962,1.5966,1.6022,1.6015,1.6006,1.5985,1.603,1.6049,1.6058,1.5954,1.5954,1.5953,1.5953,0,0,1.5654,1.5703,1.5714,1.5733,1.5771,1.5802,1.5843,1.5882,1.5903,1.5933,1.5968,1.6019,1.6011,1.6034,1.604,1.6066,1.6113,1.6054,1.6055,1.6064,1.6176,1.6183,1.6192,1.6111,1.6113,1.6114,1.6173,0,1.5713,1.5787,1.5798,1.5863,1.5899,1.5898,1.5934,1.5961,1.5975,1.6007,1.6022,1.6059,1.6045,1.6059,1.6085,1.6102,1.6136,1.6098,1.6143,1.6144,1.6135,1.6202,1.621,1.6264,1.6181,1.6182,1.6183,0,1.5792,1.5825,1.5893,1.5926,1.5941,1.5973,1.601,1.6041,1.607,1.6079,1.6103,1.6106,1.6148,1.6125,1.6182,1.6155,1.6174,1.6185,1.6187,1.6192,1.6167,1.6209,1.6282,1.629,1.6196,1.6195,1.6194,0,1.5832,1.5893,1.5942,1.5958,1.5998,1.602,1.6037,1.6066,1.6088,1.6119,1.6134,1.6169,1.6189,1.6216,1.6228,1.621,1.6283,1.6262,1.6291,1.629,1.6306,1.6305,1.6384,1.6318,1.6318,1.6318,1.6318,0,1.5897,1.5939,1.596,1.599,1.6037,1.6048,1.6094,1.611,1.6135,1.6167,1.6169,1.6199,1.6212,1.6244,1.6254,1.6299,1.6307,1.6315,1.6317,1.6315,1.6314,1.6327,1.6324,1.632,1.632,1.6319,1.6319,0,1.595,1.5966,1.6019,1.6052,1.6061,1.6094,1.6121,1.6149,1.6163,1.6204,1.6214,1.6235,1.6272,1.6287,1.6332,1.6338,1.639,1.6389,1.6381,1.6381,1.6409,1.6406,1.6499,1.6512,1.6438,1.6439,1.6439,0,1.599,1.6023,1.6058,1.608,1.6099,1.6134,1.6157,1.6169,1.6193,1.6228,1.6252,1.629,1.632,1.638,1.6399,1.6433,1.6433,1.6463,1.6438,1.6435,1.6433,1.6431,1.6434,1.6468,1.6468,1.6469,1.647,0,1.606,1.6066,1.61,1.6136,1.6163,1.6192,1.622,1.6238,1.6254,1.628,1.6319,1.6342,1.6389,1.6426,1.6461,1.6477,1.6476,1.6477,1.6486,1.6484,1.6478,1.6481,1.6393,1.6475,1.6474,1.6474,1.6474,1.6474,1.6108,1.6136,1.6166,1.6203,1.6225,1.6251,1.6279,1.6296,1.6328,1.6368,1.6372,1.6413,1.6441,1.6488,1.6506,1.6538,1.653,1.6542,1.6545,1.6548,1.655,1.6472,1.6544,1.6544,1.6544,1.6544,1.6544,0,1.6178,1.6196,1.623,1.6269,1.6298,1.6294,1.6325,1.6349,1.6385,1.6411,1.6441,1.6485,1.652,1.6541,1.6577,1.6598,1.6598,1.6607,1.6605,1.6609,1.6556,1.6545,1.6606,1.6606,1.6606,1.6606,1.6606,1.6606,1.6217,1.6265,1.6274,1.6332,1.635,1.6391,1.6409,1.6432,1.6453,1.6502,1.6531,1.6545,1.6569,1.6606,1.6638,1.6643,1.6655,1.6665,1.6669,1.6619,1.6613,1.6607,1.6596,1.6668,1.6668,1.672,1.6721,1.6721]}]]